Airfield :
LOGIN :

Register | Disclaimer

   EN    FR    IT 

 










Legend :    VFR   Marginal VFR   IFR   Intensive IFR   Very Intensive IFR
Visi :
Ceiling :
>= 8 km
>= 3000ft
5 to 8 km
1000 to 3000 ft
1500m to 5 km
500 to 1000 ft
800 to 1500m
200 to 500 ft
< 800m
< 200 ft
Symbols :   Thunderstorms  Fog  Heavy snow  Heavy precipitations  Wind > 20 kt
SIGMETs :     Misc.  Thunderstorms  Icing  Turbulence  Mountain Waves  Volcanic Ashes







- Airport Elevation : 336 ft
- IATA code : GCI
- Download approach charts


EGJB - Guernsey

CURRENT METAR :
  • 262150Z 28011KT 1500 VCFG FEW000 BKN001 13/13 Q1015

EXPIRED METARs :
  • 262120Z 28011KT 1000 R27/0900 VCFG SCT000 BKN001 13/13 Q1015
  • 262050Z 27011KT 0500 R27/0450 FG OVC000 13/13 Q1015
  • 262020Z 27012KT 0400 R27/0400 -DZ FG OVC000 13/13 Q1015
  • 261950Z 26014KT 0150 R27/0350 -DZ FG OVC000 13/13 Q1015
  • 261920Z 26015KT 0150 R27/0350 -DZ FG OVC000 13/13 Q1015
  • 261850Z 25014KT 0150 R27/0250 -DZ FG OVC000 13/13 Q1015

TAF TAF EGJB
Valid from the 26 at 21:00 until the 27 at 06:00 UTC


262005Z 2621/2706 28014KT 0200 -RADZ FG OVC000
BECMG 2621/2622 3000 BR SCT003 BKN010
BECMG 2622/2624 9999 SCT012
ATIS : +44 1481 238 957
No reported NOTAMs for that airfield.



MET'MAP, your aeronautical weather chart ! - Copyright ORBIFLY December 2007 - Disclaimer

ORBIFLY MET'MAP TEAM :

Programming & Development : Alexandra Zaïnal
Concept & Development : Baudouin d'Aumeries
Co-Development & Prog : Marc-Olivier Méhu
Technical & hardware support : Manuel Goepfert

Contact : metmap@orbifly.com




SOURCES & CREDITS :

   NOAA